UAL525 KSFO-KPSP

Flight info

Callsign UAL525
Flight time N/A
Altitude 33000
Route WESLA5 KAYEX LOSHN CLASN SIZLR3
Aircraft B739/M-SDE2E3FGHIRWXY/LB1

Departure

Time 2026-05-03 22:43
Airport San Francisco International Airport (KSFO)

Arrival

Time N/A
Airport Palm Springs International Airport (KPSP)
Time Latitude Longitude Altitude Speed Heading
2026-05-03 22:00 37.61653 -122.38085 15 ft 0 kts 341°
2026-05-03 22:17 37.61648 -122.38083 16 ft 3 kts 341°
2026-05-03 22:17 37.61630 -122.38075 14 ft 3 kts 341°
2026-05-03 22:18 37.61612 -122.38067 15 ft 3 kts
2026-05-03 22:18 37.61595 -122.38077 16 ft 3 kts 71°
2026-05-03 22:18 37.61594 -122.38082 14 ft 0 kts 72°
2026-05-03 22:20 37.61594 -122.38081 14 ft 0 kts 72°
2026-05-03 22:21 37.61595 -122.38079 17 ft 0 kts 72°
2026-05-03 22:32 37.61606 -122.38064 14 ft 8 kts 40°
2026-05-03 22:33 37.61666 -122.37998 18 ft 15 kts 40°
2026-05-03 22:33 37.61743 -122.37894 18 ft 17 kts 44°
2026-05-03 22:33 37.61792 -122.37769 17 ft 16 kts 94°
2026-05-03 22:33 37.61757 -122.37639 19 ft 15 kts 111°
2026-05-03 22:34 37.61713 -122.37501 19 ft 21 kts 115°
2026-05-03 22:34 37.61648 -122.37334 22 ft 21 kts 121°
2026-05-03 22:34 37.61575 -122.37181 22 ft 20 kts 119°
2026-05-03 22:34 37.61514 -122.37023 22 ft 20 kts 116°
2026-05-03 22:35 37.61433 -122.36884 19 ft 21 kts 130°
2026-05-03 22:35 37.61349 -122.36737 17 ft 20 kts 121°
2026-05-03 22:35 37.61283 -122.36581 15 ft 20 kts 117°
2026-05-03 22:35 37.61206 -122.36401 16 ft 33 kts 118°
2026-05-03 22:36 37.61096 -122.36145 18 ft 25 kts 119°
2026-05-03 22:36 37.61060 -122.36050 19 ft 5 kts 107°
2026-05-03 22:36 37.61059 -122.36048 19 ft 0 kts 107°
2026-05-03 22:36 37.61053 -122.36019 19 ft 7 kts 103°
2026-05-03 22:37 37.61052 -122.35980 19 ft 0 kts 77°
2026-05-03 22:37 37.61057 -122.35967 18 ft 2 kts 66°
2026-05-03 22:37 37.61058 -122.35964 18 ft 0 kts 66°
2026-05-03 22:38 37.61058 -122.35961 18 ft 1 kts 66°
2026-05-03 22:38 37.61059 -122.35959 18 ft 0 kts 66°
2026-05-03 22:40 37.61060 -122.35957 18 ft 1 kts 66°
2026-05-03 22:40 37.61068 -122.35938 18 ft 4 kts 56°
2026-05-03 22:40 37.61099 -122.35905 18 ft 5 kts 30°
2026-05-03 22:40 37.61100 -122.35904 17 ft 0 kts 29°
2026-05-03 22:41 37.61107 -122.35900 20 ft 3 kts 29°
2026-05-03 22:41 37.61137 -122.35888 18 ft 5 kts
2026-05-03 22:42 37.61177 -122.35893 18 ft 7 kts 343°
2026-05-03 22:42 37.61211 -122.35940 17 ft 6 kts 299°
2026-05-03 22:42 37.61216 -122.35951 16 ft 5 kts 299°
2026-05-03 22:42 37.61330 -122.36221 14 ft 77 kts 298°
2026-05-03 22:43 37.61706 -122.37128 20 ft 153 kts 296°
2026-05-03 22:43 37.62297 -122.38462 421 ft 179 kts 297°
2026-05-03 22:43 37.62928 -122.39741 1498 ft 176 kts 300°
2026-05-03 22:43 37.63476 -122.41141 2261 ft 187 kts 291°
2026-05-03 22:44 37.64105 -122.42715 2541 ft 212 kts 296°
2026-05-03 22:44 37.64851 -122.44453 2799 ft 234 kts 296°
2026-05-03 22:44 37.65636 -122.46256 3445 ft 241 kts 296°
2026-05-03 22:44 37.66470 -122.48128 4183 ft 246 kts 297°
2026-05-03 22:45 37.67291 -122.50101 4695 ft 265 kts 284°
2026-05-03 22:45 37.67330 -122.52417 5243 ft 270 kts 250°
2026-05-03 22:45 37.66377 -122.54414 5412 ft 272 kts 220°
2026-05-03 22:45 37.64737 -122.55498 6850 ft 267 kts 188°
2026-05-03 22:46 37.62912 -122.55260 7589 ft 272 kts 158°
2026-05-03 22:46 37.61244 -122.54055 8381 ft 271 kts 148°
2026-05-03 22:46 37.59609 -122.52944 9591 ft 262 kts 157°
2026-05-03 22:46 37.57899 -122.52032 10217 ft 274 kts 158°
2026-05-03 22:47 37.56072 -122.51101 10489 ft 297 kts 158°
2026-05-03 22:47 37.54078 -122.50083 10751 ft 318 kts 158°
2026-05-03 22:47 37.52026 -122.49057 11314 ft 327 kts 158°
2026-05-03 22:47 37.49872 -122.47916 11669 ft 343 kts 153°
2026-05-03 22:48 37.47953 -122.46053 12136 ft 354 kts 132°
2026-05-03 22:48 37.46394 -122.43670 13003 ft 353 kts 129°
2026-05-03 22:48 37.44872 -122.41247 13833 ft 353 kts 129°
2026-05-03 22:48 37.43347 -122.38783 14367 ft 360 kts 129°
2026-05-03 22:49 37.41805 -122.36291 15034 ft 362 kts 129°
2026-05-03 22:49 37.40246 -122.33793 15731 ft 363 kts 129°
2026-05-03 22:49 37.38672 -122.31289 16336 ft 367 kts 129°
2026-05-03 22:49 37.37071 -122.28753 16894 ft 373 kts 130°
2026-05-03 22:50 37.35453 -122.26203 17623 ft 372 kts 129°
2026-05-03 22:50 37.33903 -122.23617 18414 ft 371 kts 129°
2026-05-03 22:50 37.32267 -122.21055 18826 ft 378 kts 129°
2026-05-03 22:50 37.30638 -122.18450 19385 ft 380 kts 129°
2026-05-03 22:51 37.28954 -122.15875 19943 ft 383 kts 131°
2026-05-03 22:51 37.27212 -122.13304 20419 ft 388 kts 131°
2026-05-03 22:51 37.25439 -122.10719 20949 ft 392 kts 131°
2026-05-03 22:51 37.23671 -122.08115 21528 ft 393 kts 130°
2026-05-03 22:52 37.21933 -122.05526 22146 ft 393 kts 130°
2026-05-03 22:52 37.20187 -122.02888 22751 ft 394 kts 129°
2026-05-03 22:52 37.18436 -122.00220 23271 ft 398 kts 129°
2026-05-03 22:52 37.16673 -121.97523 23737 ft 401 kts 128°
2026-05-03 22:53 37.14900 -121.94805 24068 ft 407 kts 129°
2026-05-03 22:53 37.13088 -121.92028 24289 ft 414 kts 129°
2026-05-03 22:53 37.11260 -121.89227 24735 ft 415 kts 129°
2026-05-03 22:53 37.09430 -121.86424 25172 ft 418 kts 129°
2026-05-03 22:54 37.07578 -121.83593 25521 ft 422 kts 130°
2026-05-03 22:54 37.05706 -121.80734 25875 ft 426 kts 130°
2026-05-03 22:54 37.03827 -121.77868 26292 ft 427 kts 129°
2026-05-03 22:54 37.01929 -121.74992 26696 ft 429 kts 130°
2026-05-03 22:55 37.00021 -121.72090 26929 ft 436 kts 131°
2026-05-03 22:55 36.98107 -121.69174 27129 ft 443 kts 131°
2026-05-03 22:55 36.96146 -121.66186 27531 ft 444 kts 131°
2026-05-03 22:55 36.94183 -121.63201 27871 ft 447 kts 131°
2026-05-03 22:56 36.92188 -121.60173 28087 ft 453 kts 131°
2026-05-03 22:56 36.90178 -121.57124 28446 ft 455 kts 132°
2026-05-03 22:56 36.88162 -121.54065 28798 ft 457 kts 131°
2026-05-03 22:56 36.86129 -121.50987 28965 ft 464 kts 133°
2026-05-03 22:57 36.84054 -121.47853 29066 ft 471 kts 133°
2026-05-03 22:57 36.81957 -121.44687 29423 ft 473 kts 133°
2026-05-03 22:57 36.79867 -121.41530 29963 ft 471 kts 133°
2026-05-03 22:57 36.77781 -121.38383 30414 ft 470 kts 133°
2026-05-03 22:58 36.75694 -121.35238 30687 ft 472 kts 133°
2026-05-03 22:58 36.73593 -121.32075 30941 ft 474 kts 134°
2026-05-03 22:58 36.71486 -121.28908 31182 ft 477 kts 135°
2026-05-03 22:58 36.69352 -121.25705 31318 ft 482 kts 135°
2026-05-03 22:59 36.67209 -121.22488 31668 ft 481 kts 135°
2026-05-03 22:59 36.65108 -121.19332 32133 ft 479 kts 135°
2026-05-03 22:59 36.62972 -121.16137 32360 ft 480 kts 136°
2026-05-03 22:59 36.60832 -121.12940 32616 ft 482 kts 136°
2026-05-03 23:00 36.58682 -121.09723 32877 ft 483 kts 136°
2026-05-03 23:00 36.54385 -121.03212 32964 ft 491 kts 138°
2026-05-03 23:01 36.49973 -120.96697 32962 ft 492 kts 139°
2026-05-03 23:01 36.46317 -120.91262 32945 ft 494 kts 138°
2026-05-03 23:02 36.41943 -120.84679 32942 ft 494 kts 137°
2026-05-03 23:02 36.37615 -120.78032 32957 ft 494 kts 137°
2026-05-03 23:03 36.33215 -120.71496 32955 ft 494 kts 138°
2026-05-03 23:03 36.28798 -120.64975 32944 ft 493 kts 138°
2026-05-03 23:04 36.24405 -120.58455 32932 ft 493 kts 139°
2026-05-03 23:04 36.20016 -120.51934 32960 ft 493 kts 139°
2026-05-03 23:05 36.15683 -120.45331 32961 ft 493 kts 139°
2026-05-03 23:05 36.11202 -120.38925 32914 ft 495 kts 141°
2026-05-03 23:06 36.06820 -120.32409 32944 ft 498 kts 141°
2026-05-03 23:06 36.02365 -120.25818 32941 ft 501 kts 141°
2026-05-03 23:07 35.97862 -120.19193 32928 ft 504 kts 142°
2026-05-03 23:07 35.93346 -120.12549 32945 ft 506 kts 142°
2026-05-03 23:08 35.88814 -120.05885 32947 ft 508 kts 141°
2026-05-03 23:08 35.86412 -120.02341 32935 ft 511 kts 134°
2026-05-03 23:09 35.84886 -119.99298 32895 ft 525 kts 131°
2026-05-03 23:09 35.81337 -119.91441 32910 ft 530 kts 125°
2026-05-03 23:10 35.78334 -119.83178 32931 ft 533 kts 123°
2026-05-03 23:10 35.75335 -119.74849 32933 ft 531 kts 124°
2026-05-03 23:11 35.72240 -119.66612 32921 ft 529 kts 124°
2026-05-03 23:11 35.69117 -119.58408 32883 ft 528 kts 125°
2026-05-03 23:12 35.65838 -119.50386 32901 ft 516 kts 134°
2026-05-03 23:12 35.63747 -119.46879 32903 ft 499 kts 144°
2026-05-03 23:12 35.61410 -119.43761 32919 ft 496 kts 146°
2026-05-03 23:13 35.56683 -119.37570 32909 ft 498 kts 145°
2026-05-03 23:13 35.51975 -119.31307 32899 ft 500 kts 144°
2026-05-03 23:14 35.47272 -119.24986 32896 ft 502 kts 144°
2026-05-03 23:14 35.42560 -119.18651 32897 ft 503 kts 144°
2026-05-03 23:15 35.37835 -119.12318 32870 ft 504 kts 144°
2026-05-03 23:15 35.33129 -119.06023 32893 ft 504 kts 144°
2026-05-03 23:16 35.28382 -118.99703 32893 ft 503 kts 144°
2026-05-03 23:16 35.23634 -118.93419 32889 ft 502 kts 144°
2026-05-03 23:17 35.18891 -118.87150 32906 ft 501 kts 144°
2026-05-03 23:17 35.14161 -118.80907 32919 ft 500 kts 144°
2026-05-03 23:18 35.09440 -118.74686 32945 ft 500 kts 144°
2026-05-03 23:18 35.04708 -118.68464 32888 ft 499 kts 143°
2026-05-03 23:19 34.99930 -118.62397 32938 ft 493 kts 145°
2026-05-03 23:19 34.97650 -118.59216 32928 ft 508 kts 134°
2026-05-03 23:19 34.95610 -118.55704 32993 ft 501 kts 140°
2026-05-03 23:20 34.90784 -118.49709 32173 ft 498 kts 147°
2026-05-03 23:20 34.88328 -118.46820 31428 ft 495 kts 146°
2026-05-03 23:20 34.85918 -118.43847 30623 ft 491 kts 144°
2026-05-03 23:20 34.83584 -118.40837 29998 ft 486 kts 143°
2026-05-03 23:21 34.81290 -118.37830 29382 ft 482 kts 143°
2026-05-03 23:21 34.79017 -118.34856 28775 ft 478 kts 143°
2026-05-03 23:21 34.76805 -118.31849 28225 ft 478 kts 140°
2026-05-03 23:21 34.74719 -118.28698 27661 ft 477 kts 137°
2026-05-03 23:22 34.70722 -118.22329 26506 ft 470 kts 137°
2026-05-03 23:22 34.68739 -118.19187 25974 ft 465 kts 137°
2026-05-03 23:22 34.66760 -118.16094 25431 ft 462 kts 138°
2026-05-03 23:23 34.64786 -118.13040 24886 ft 458 kts 138°
2026-05-03 23:23 34.62824 -118.10018 24317 ft 454 kts 138°
2026-05-03 23:23 34.60875 -118.07016 23784 ft 451 kts 138°
2026-05-03 23:23 34.58937 -118.04032 23162 ft 449 kts 137°
2026-05-03 23:24 34.57161 -118.00893 22696 ft 453 kts 127°
2026-05-03 23:24 34.55756 -117.97515 22419 ft 445 kts 123°
2026-05-03 23:24 34.54431 -117.94152 22104 ft 438 kts 123°
2026-05-03 23:24 34.53124 -117.90834 21824 ft 436 kts 123°
2026-05-03 23:25 34.51799 -117.87527 21539 ft 437 kts 123°
2026-05-03 23:25 34.50451 -117.84214 21250 ft 437 kts 123°
2026-05-03 23:25 34.49124 -117.80970 20931 ft 432 kts 123°
2026-05-03 23:25 34.47793 -117.77725 20651 ft 427 kts 123°
2026-05-03 23:26 34.46472 -117.74518 20377 ft 422 kts 123°
2026-05-03 23:26 34.45170 -117.71356 20095 ft 418 kts 122°
2026-05-03 23:26 34.43880 -117.68229 19825 ft 413 kts 123°
2026-05-03 23:26 34.42604 -117.65125 19558 ft 410 kts 122°
2026-05-03 23:27 34.41343 -117.62044 19290 ft 408 kts 122°
2026-05-03 23:27 34.40075 -117.58933 19033 ft 415 kts 122°
2026-05-03 23:27 34.39643 -117.57873 18946 ft 416 kts 122°
2026-05-03 23:27 34.37510 -117.52663 18480 ft 410 kts 122°
2026-05-03 23:28 34.36254 -117.49591 18234 ft 407 kts 122°
2026-05-03 23:28 34.35000 -117.46520 17903 ft 406 kts 121°
2026-05-03 23:28 34.33753 -117.43475 17623 ft 403 kts 121°
2026-05-03 23:28 34.32508 -117.40437 17348 ft 401 kts 121°
2026-05-03 23:29 34.31275 -117.37436 17077 ft 397 kts 121°
2026-05-03 23:29 34.30049 -117.34459 16825 ft 393 kts 121°
2026-05-03 23:29 34.28781 -117.31554 16582 ft 388 kts 124°
2026-05-03 23:29 34.27442 -117.28728 16334 ft 385 kts 125°
2026-05-03 23:30 34.26110 -117.25927 16067 ft 383 kts 125°
2026-05-03 23:30 34.24794 -117.23135 16001 ft 383 kts 125°
2026-05-03 23:30 34.23475 -117.20338 15964 ft 381 kts 125°
2026-05-03 23:30 34.22174 -117.17564 15925 ft 380 kts 125°
2026-05-03 23:31 34.20862 -117.14768 15914 ft 384 kts 125°
2026-05-03 23:31 34.19544 -117.11957 15901 ft 386 kts 126°
2026-05-03 23:31 34.18221 -117.09140 15906 ft 384 kts 126°
2026-05-03 23:31 34.16920 -117.06316 15938 ft 386 kts 124°
2026-05-03 23:32 34.15624 -117.03490 15934 ft 384 kts 126°
2026-05-03 23:32 34.14281 -117.00691 15910 ft 384 kts 126°
2026-05-03 23:32 34.12943 -116.97906 15896 ft 383 kts 126°
2026-05-03 23:32 34.11628 -116.95103 15908 ft 384 kts 125°
2026-05-03 23:33 34.10296 -116.92272 15586 ft 389 kts 125°
2026-05-03 23:33 34.08973 -116.89450 15316 ft 385 kts 124°
2026-05-03 23:33 34.07659 -116.86646 14922 ft 382 kts 124°
2026-05-03 23:33 34.06380 -116.83914 14613 ft 375 kts 124°
2026-05-03 23:34 34.05109 -116.81212 14314 ft 365 kts 124°
2026-05-03 23:34 34.03896 -116.78583 14013 ft 356 kts 124°
2026-05-03 23:34 34.02853 -116.75877 13680 ft 359 kts 114°
2026-05-03 23:34 34.02083 -116.72991 13230 ft 362 kts 112°
2026-05-03 23:35 34.01345 -116.70079 12833 ft 363 kts 112°
2026-05-03 23:35 34.00597 -116.67175 12444 ft 362 kts 112°
2026-05-03 23:35 33.99845 -116.64304 12043 ft 357 kts 112°
2026-05-03 23:35 33.99094 -116.61460 11676 ft 355 kts 113°
2026-05-03 23:36 33.98338 -116.58629 11309 ft 354 kts 112°
2026-05-03 23:36 33.97525 -116.55884 11093 ft 333 kts 121°
2026-05-03 23:36 33.96373 -116.53703 11367 ft 286 kts 134°
2026-05-03 23:36 33.95056 -116.52064 11240 ft 261 kts 141°
2026-05-03 23:37 33.93777 -116.50631 11101 ft 242 kts 142°
2026-05-03 23:37 33.92588 -116.49303 10962 ft 224 kts 142°
2026-05-03 23:37 33.91494 -116.48072 10750 ft 215 kts 142°
2026-05-03 23:37 33.90411 -116.46849 10446 ft 212 kts 142°
2026-05-03 23:38 33.89338 -116.45633 10129 ft 211 kts 142°
2026-05-03 23:38 33.88281 -116.44432 9748 ft 209 kts 141°
2026-05-03 23:38 33.87216 -116.43222 9315 ft 211 kts 142°
2026-05-03 23:38 33.86152 -116.42025 8982 ft 208 kts 142°
2026-05-03 23:39 33.85092 -116.40842 8857 ft 208 kts 142°
2026-05-03 23:39 33.83967 -116.39713 8489 ft 216 kts 159°
2026-05-03 23:39 33.82530 -116.39338 7963 ft 212 kts 175°
2026-05-03 23:39 33.81063 -116.39069 7427 ft 214 kts 174°
2026-05-03 23:40 33.79589 -116.38791 6887 ft 215 kts 174°
2026-05-03 23:40 33.78104 -116.38534 6329 ft 215 kts 180°
2026-05-03 23:40 33.76709 -116.38957 5757 ft 205 kts 217°
2026-05-03 23:40 33.75608 -116.39984 5491 ft 193 kts 212°
2026-05-03 23:41 33.74348 -116.40166 5346 ft 185 kts 161°
2026-05-03 23:41 33.73298 -116.39243 5426 ft 195 kts 146°
2026-05-03 23:41 33.72162 -116.38353 5407 ft 189 kts 161°
2026-05-03 23:41 33.71004 -116.37726 5335 ft 185 kts 154°
2026-05-03 23:42 33.70235 -116.36611 5048 ft 198 kts 108°